sat.trackr.live / text

‹ back to catalog

STARLINK-35720

NORAD 67052 · 2025-294Y

PAYLOAD ACTIVE UNKNOWN

§ Identity

Operator
Country
US
Launch date
2025-12-11
Launch site
AFETR
Launch vehicle
Mass (kg)
RCS (m²)

Purposes: comms

External: N2YO · Heavens-Above · Gunter

§ Orbital elements

Epoch: 2026-05-24T22:50:39.935040Z

Period
94.27 min
Inclination
43.0024°
Eccentricity
0.0002381
Mean motion
15.27595844 rev/d
Perigee alt
481.4 km
Apogee alt
484.6 km
Semi-major
6,861.1 km
B*
6.4550e-4
RAAN
327.2808°
Arg perigee
236.9471°
Mean anomaly
123.1152°
Rev number
2,646

§ Raw data

STARLINK-357201 67052U 25294Y   26144.95185110  .00017552  00000+0  64550-3 0  99912 67052  43.0024 327.2808 0002381 236.9471 123.1152 15.27595844 26464

JSON: /api/v1/satellites/67052 · /tle

For live sub-satellite position, see the globe view (requires WebGL).

§ Visibility from observer

Set your observer location to see the next 7 days of passes ≥ 10°. The values pass through the URL so the page stays shareable.

No JS? Fill the form by hand. The geolocation button needs JavaScript.